Location: Sebastopol
(38.4021°N, 122.8239°W)
Time: 15:38:25
(UTC+00:00)

Cosmos 1190 Rocket - Pass Details

Date: 29 October 2020
Orbit: 757 x 779 km, 74.1° (Epoch: 01 December)

Event Time Altitude Azimuth Distance (km) Brightness Sun altitude
Rises 13:46:36 0° 203° (SSW) 3,226 7.1 -10.1°
Reaches altitude 10° 13:48:59 10° 206° (SSW) 2,300 6.3 -9.6°
Maximum altitude 13:54:11 69° 289° (WNW) 817 4.0 -8.6°
Drops below altitude 10° 13:59:23 10° 13° (NNE) 2,301 6.5 -7.6°
Sets 14:01:47 0° 16° (NNE) 3,228 7.3 -7.2°
